FW7500 Weather Reports


Display with metric or nautical units.
time (UTC)temp
F
wind
direction
speed
MPH
gust
MPH
rain 1hr
in
rain 24hr
in
rain mn
in
humidity
%
barometer
mb
20260906100058 70 360 4.0 9.0 0.00 0.43 0.00 96 1014.7
20260906094611 70 0 0.0 4.0 0.00 0.43 0.00 96 1014.7
20260906093129 70 360 1.0 6.0 0.00 0.43 0.00 96 1014.5
20260906091603 70 27 2.0 6.0 0.00 0.43 0.00 96 1014.4
20260906090054 70 56 3.0 5.0 0.00 0.43 0.00 96 1014.4
20260906084557 70 360 2.0 5.0 0.00 0.43 0.00 96 1014.3
20260906083055 70 44 3.0 9.0 0.00 0.43 0.00 96 1014.2
20260906081554 70 39 1.0 5.0 0.00 0.43 0.00 96 1014.0
20260906080056 70 29 2.0 6.0 0.00 0.43 0.00 96 1014.0
20260906074559 70 0 0.0 2.0 0.00 0.43 0.00 96 1014.1
20260906073057 70 360 0.0 4.0 0.00 0.43 0.00 96 1014.1
20260906071555 70 0 0.0 2.0 0.00 0.43 0.00 96 1014.2
20260906064602 70 0 0.0 2.0 0.00 0.43 0.00 96 1014.5
20260906063101 70 0 0.0 0.0 0.00 0.43 0.00 96 1014.5
20260906061605 70 0 0.0 0.0 0.00 0.43 0.00 96 1014.5
20260906054607 70 0 0.0 0.0 0.00 0.43 0.00 96 1014.5
20260906053057 70 0 0.0 0.0 0.00 0.43 0.00 96 1014.4
20260906051602 70 0 0.0 0.0 0.00 0.43 0.00 95 1014.4
20260906050105 70 0 0.0 0.0 0.00 0.43 0.00 95 1014.4
20260906044557 70 0 0.0 0.0 0.00 0.43 0.00 96 1014.2
20260906043056 70 0 0.0 0.0 0.00 0.43 0.00 96 1014.1
20260906041553 70 0 0.0 0.0 0.00 0.43 0.00 95 1014.0
20260906034603 70 0 0.0 0.0 0.00 0.43 0.43 95 1014.0
20260906033056 70 0 0.0 0.0 0.00 0.43 0.43 95 1013.8
20260906031553 70 0 0.0 0.0 0.01 0.43 0.43 95 1013.9
20260906030104 70 0 0.0 0.0 0.01 0.43 0.43 95 1013.7
20260906024600 70 0 0.0 0.0 0.01 0.43 0.43 94 1013.5
20260906023053 70 0 0.0 0.0 0.01 0.43 0.43 94 1013.6
20260906021601 70 0 0.0 0.0 0.00 0.42 0.42 93 1013.9
20260906020101 71 0 0.0 0.0 0.16 0.42 0.42 92 1013.9
20260906014633 71 0 0.0 6.0 0.42 0.42 0.42 91 1013.7
20260906013059 71 0 2.0 8.0 0.42 0.42 0.42 90 1013.8
20260906011602 73 349 2.0 6.0 0.42 0.42 0.42 86 1013.6
20260906010058 74 360 6.0 13.0 0.23 0.23 0.23 83 1013.6
20260906004613 76 37 7.0 12.0 0.00 0.00 0.00 85 1014.3
20260906003115 77 65 2.0 6.0 0.00 0.00 0.00 85 1013.1
20260906001603 77 0 0.0 0.0 0.00 0.00 0.00 83 1012.2
20260906000058 78 0 0.0 0.0 0.00 0.00 0.00 81 1012.4
20260905234609 78 0 0.0 3.0 0.00 0.00 0.00 80 1013.0
20260905233103 79 0 0.0 2.0 0.00 0.00 0.00 78 1013.0
20260905231554 79 0 0.0 6.0 0.00 0.00 0.00 77 1013.1
20260905230110 80 164 1.0 6.0 0.00 0.00 0.00 75 1013.2
20260905224609 81 138 2.0 6.0 0.00 0.00 0.00 73 1013.4
20260905223054 83 100 3.0 8.0 0.00 0.00 0.00 71 1013.2
20260905221616 83 0 1.0 4.0 0.00 0.00 0.00 70 1013.1
20260905220059 84 158 4.0 10.0 0.00 0.00 0.00 67 1012.8
20260905214600 88 108 6.0 10.0 0.00 0.00 0.00 59 1012.9
20260905213106 90 360 4.0 9.0 0.00 0.00 0.00 57 1012.5
20260905211600 91 360 5.0 10.0 0.00 0.00 0.00 56 1012.5
20260905210100 91 274 3.0 8.0 0.00 0.00 0.00 56 1012.5
20260905204550 91 360 3.0 8.0 0.00 0.00 0.00 54 1012.5
20260905203054 91 360 5.0 10.0 0.00 0.00 0.00 56 1012.9
20260905201627 91 273 4.0 10.0 0.00 0.00 0.00 54 1013.0
20260905200103 91 360 5.0 10.0 0.00 0.00 0.00 56 1013.1
20260905194556 91 0 3.0 7.0 0.00 0.00 0.00 53 1013.3
20260905193104 90 360 3.0 7.0 0.00 0.00 0.00 56 1013.6
20260905191549 90 288 3.0 9.0 0.00 0.00 0.00 56 1014.0
20260905184559 88 360 4.0 9.0 0.00 0.00 0.00 60 1014.4
20260905183054 88 263 3.0 8.0 0.00 0.00 0.00 60 1014.5
20260905181612 87 200 4.0 9.0 0.00 0.00 0.00 61 1014.5
20260905174606 87 360 2.0 8.0 0.00 0.00 0.00 65 1014.6
20260905173104 86 360 2.0 7.0 0.00 0.00 0.00 63 1014.7
20260905171602 85 278 4.0 8.0 0.00 0.00 0.00 62 1015.0
20260905170100 85 253 2.0 7.0 0.00 0.00 0.00 62 1015.3
20260905164603 84 360 3.0 8.0 0.00 0.00 0.00 65 1015.6
20260905163101 84 0 2.0 6.0 0.00 0.00 0.00 64 1015.6
20260905161604 82 360 2.0 6.0 0.00 0.00 0.00 67 1015.3
20260905160058 81 200 4.0 8.0 0.00 0.00 0.00 66 1015.4
20260905154619 79 360 2.0 7.0 0.00 0.00 0.00 70 1015.3
20260905153059 79 360 4.0 7.0 0.00 0.00 0.00 70 1015.6
20260905151605 79 158 2.0 7.0 0.00 0.00 0.00 70 1015.4
20260905150057 78 360 2.0 11.0 0.00 0.00 0.00 73 1015.5
20260905144603 77 360 4.0 10.0 0.00 0.00 0.00 74 1015.5
20260905143100 77 157 5.0 8.0 0.00 0.00 0.00 74 1015.5
20260905141600 76 146 3.0 7.0 0.00 0.00 0.00 75 1015.8
20260905140057 75 98 0.0 5.0 0.00 0.00 0.00 79 1016.2
20260905134601 74 360 2.0 5.0 0.00 0.00 0.00 80 1016.4
20260905133058 72 104 2.0 4.0 0.00 0.00 0.00 83 1016.8
20260905131608 71 0 0.0 4.0 0.00 0.00 0.00 85 1017.4
20260905130104 70 108 1.0 8.0 0.00 0.00 0.00 86 1017.7
20260905124604 70 360 4.0 7.0 0.00 0.00 0.00 87 1018.3
20260905123101 70 360 1.0 3.0 0.00 0.00 0.00 86 1017.9
20260905121603 70 360 4.0 6.0 0.00 0.00 0.00 85 1018.1
20260905114606 70 0 2.0 8.0 0.00 0.00 0.00 83 1017.1
20260905113100 70 58 7.0 24.0 0.00 0.00 0.00 82 1017.1
20260905111609 72 60 14.0 25.0 0.00 0.00 0.00 82 1016.8
20260905110100 73 53 16.0 26.0 0.00 0.00 0.00 83 1017.1
20260905104616 75 321 0.0 3.0 0.00 0.00 0.00 86 1015.0
20260905103100 75 304 1.0 8.0 0.00 0.00 0.00 85 1014.3
20260905101603 74 360 5.0 10.0 0.00 0.00 0.00 89 1014.6